DEMAZ EDXW-EDXW

Flight info

Callsign DEMAZ
Flight time 0h 8m
Altitude
Route
Aircraft C400

Departure

Time 2026-04-14 17:21
Airport Westerland Sylt Airport (EDXW)

Arrival

Time 2026-04-14 17:29
Airport Westerland Sylt Airport (EDXW)
Time Latitude Longitude Altitude Speed Heading
2026-04-14 17:14 54.91351 8.33130 24 ft 0 kts 270°
2026-04-14 17:16 54.91354 8.33162 24 ft 13 kts 102°
2026-04-14 17:17 54.91231 8.33179 27 ft 24 kts 184°
2026-04-14 17:17 54.91116 8.33180 30 ft 10 kts 180°
2026-04-14 17:17 54.90996 8.33130 29 ft 23 kts 207°
2026-04-14 17:17 54.90879 8.33169 30 ft 21 kts 156°
2026-04-14 17:18 54.90676 8.33228 30 ft 34 kts 177°
2026-04-14 17:18 54.90435 8.33325 29 ft 38 kts 166°
2026-04-14 17:18 54.90273 8.33650 28 ft 34 kts 112°
2026-04-14 17:18 54.90235 8.34038 28 ft 32 kts 91°
2026-04-14 17:19 54.90277 8.34370 30 ft 24 kts 79°
2026-04-14 17:19 54.90372 8.34586 30 ft 23 kts 49°
2026-04-14 17:19 54.90492 8.34772 30 ft 22 kts 37°
2026-04-14 17:19 54.90523 8.34820 30 ft 3 kts 45°
2026-04-14 17:20 54.90619 8.34926 31 ft 24 kts 320°
2026-04-14 17:20 54.90862 8.34620 31 ft 71 kts 323°
2026-04-14 17:20 54.91358 8.34008 219 ft 93 kts 320°
2026-04-14 17:20 54.91673 8.33135 476 ft 98 kts 255°
2026-04-14 17:21 54.91306 8.32049 586 ft 114 kts 224°
2026-04-14 17:21 54.90495 8.32281 689 ft 134 kts 156°
2026-04-14 17:21 54.89663 8.33104 793 ft 143 kts 152°
2026-04-14 17:21 54.89339 8.34309 847 ft 114 kts 58°
2026-04-14 17:22 54.89969 8.35105 302 ft 106 kts 11°
2026-04-14 17:22 54.90568 8.34944 37 ft 76 kts 328°
2026-04-14 17:22 54.90916 8.34523 31 ft 52 kts 328°
2026-04-14 17:22 54.91322 8.34091 242 ft 71 kts 321°
2026-04-14 17:23 54.91747 8.33477 453 ft 87 kts 297°
2026-04-14 17:23 54.91714 8.32485 632 ft 104 kts 216°
2026-04-14 17:23 54.90970 8.32260 856 ft 113 kts 195°
2026-04-14 17:23 54.90185 8.31932 1092 ft 120 kts 196°
2026-04-14 17:24 54.89312 8.31686 1155 ft 135 kts 193°
2026-04-14 17:24 54.88317 8.31473 1098 ft 145 kts 193°
2026-04-14 17:24 54.87596 8.32264 1308 ft 143 kts 95°
2026-04-14 17:24 54.88161 8.33527 1029 ft 151 kts 24°
2026-04-14 17:25 54.89003 8.34704 762 ft 140 kts 41°
2026-04-14 17:25 54.89668 8.35462 422 ft 99 kts
2026-04-14 17:25 54.90253 8.35343 166 ft 76 kts 324°
2026-04-14 17:25 54.90654 8.34874 25 ft 59 kts 324°
2026-04-14 17:26 54.91051 8.34410 130 ft 81 kts 322°
2026-04-14 17:26 54.91462 8.33653 423 ft 94 kts 270°
2026-04-14 17:26 54.91262 8.32348 532 ft 127 kts 244°
2026-04-14 17:26 54.90711 8.31235 1097 ft 125 kts 208°
2026-04-14 17:27 54.89752 8.30980 1210 ft 154 kts 191°
2026-04-14 17:27 54.88644 8.31074 1362 ft 170 kts 173°
2026-04-14 17:27 54.87453 8.31547 1469 ft 176 kts 170°
2026-04-14 17:27 54.86726 8.33103 1478 ft 190 kts 83°
2026-04-14 17:28 54.87503 8.34859 1346 ft 192 kts 29°
2026-04-14 17:28 54.88468 8.35682 981 ft 131 kts 11°
2026-04-14 17:28 54.89246 8.35845 651 ft 98 kts 352°
2026-04-14 17:28 54.89854 8.35672 374 ft 81 kts 334°
2026-04-14 17:29 54.90311 8.35278 133 ft 70 kts 321°
2026-04-14 17:29 54.90709 8.34811 29 ft 69 kts 319°
2026-04-14 17:29 54.91035 8.34408 32 ft 49 kts 319°
2026-04-14 17:29 54.91419 8.33894 167 ft 79 kts 315°
2026-04-14 17:30 54.91624 8.33055 434 ft 83 kts 258°
2026-04-14 17:30 54.91148 8.32388 513 ft 123 kts 192°
2026-04-14 17:30 54.90226 8.32130 656 ft 145 kts 197°
2026-04-14 17:30 54.89174 8.32248 805 ft 167 kts 163°
2026-04-14 17:31 54.88459 8.32833 877 ft 174 kts 155°
2026-04-14 17:31 54.88025 8.34296 906 ft 132 kts 63°
2026-04-14 17:31 54.88698 8.35084 668 ft 116 kts
2026-04-14 17:31 54.89463 8.35353 522 ft 106 kts
2026-04-14 17:32 54.90194 8.35350 206 ft 100 kts 338°
2026-04-14 17:32 54.90697 8.34828 32 ft 69 kts 319°
2026-04-14 17:32 54.91007 8.34442 27 ft 43 kts 326°
2026-04-14 17:32 54.91353 8.33970 56 ft 83 kts 306°
2026-04-14 17:33 54.91426 8.32985 356 ft 91 kts 265°
2026-04-14 17:33 54.91058 8.32053 686 ft 113 kts 202°
2026-04-14 17:33 54.90162 8.31951 861 ft 142 kts 188°
2026-04-14 17:34 54.88886 8.33602 911 ft 116 kts 72°
2026-04-14 17:34 54.89227 8.34647 629 ft 95 kts 34°
2026-04-14 17:34 54.89798 8.35163 364 ft 97 kts 12°
2026-04-14 17:34 54.90399 8.35198 55 ft 77 kts 321°
2026-04-14 17:35 54.90735 8.34776 30 ft 28 kts 324°
2026-04-14 17:35 54.90922 8.34504 31 ft 60 kts 320°
2026-04-14 17:35 54.91272 8.33946 263 ft 73 kts 307°
2026-04-14 17:35 54.91478 8.33211 611 ft 70 kts 263°
2026-04-14 17:36 54.91159 8.32511 876 ft 86 kts 219°
2026-04-14 17:36 54.90535 8.32049 1049 ft 108 kts 207°
2026-04-14 17:36 54.89777 8.31444 1266 ft 132 kts 210°